OAKBOAJL

Guest
Details From OAKB - Kabul Intl
To OAJL - JALALABAD
Flight Number -
Tags decoded
Created
Modified
Stats Distance 65 nm / 120 km
Max Altitude 0 ft / 0 m
Waypoints 4
Social Downloads 1
Likes 0
Share VATSIM

Download

Looking for another format? Having issues loading an existing format? Contact us
Advertisement - Login to hide

Notes

Requested: OAKB LEELO LANNI OAJL

Route

OAKB LEELO LANNI OAJL

ID Type Via Altitude Latitude Longitude Leg Dist Tot Dist Heading (true) Name
O OAKB APT - 0 ft / 0 m 34.56587˚ 69.21229˚ - 0 nm - Kabul Intl
LEELO FIX - 0 ft / 0 m 34.47705˚ 69.55490˚ 17 nm 17 nm 107° / 108° -
LANNI FIX - 0 ft / 0 m 34.43128˚ 69.83779˚ 14 nm 32 nm 101° / 101° -
O OAJL APT - 0 ft / 0 m 34.39984˚ 70.49863˚ 32 nm 64 nm 93° / 93° JALALABAD

Altitude Profile

Advertisement - Login to hide

OAKB

Details ICAO OAKB (KBL)
Name Kabul Intl
Region Afghanistan
Timezone Asia/Kabul (UTC+4.5)
Stats Elevation 5,877 ft / 1,791 m (AMSL)
Location 34.565875° 69.212289°
Runways 1
Magnetic Variation 3.190° E

METAR

OAKB 262250Z 26004KT CAVOK 18/04 Q1017 NOSIG RMK A3006 BLU BLU

Decode

TAF

TAF OAKB 261705Z 2618/2718 VRB02KT CAVOK PROB30 TEMPO 2700/2703 4500 HZ BECMG 2706/2708 35012KT BECMG 2708/2710 35015G25KT FEW100 BECMG 2715/2717 36012KT CAVOK

Decode

Departure Runways

ID Width Length Bearing (true) Bearing (mag) Surface Threshold Offset Overrun Length
11 164 ft / 50 m 11,483 ft / 3,500 m 107.39° 104.20° Asphalt 0 ft / 0 m 144 ft / 44 m
29 164 ft / 50 m 11,483 ft / 3,500 m 287.41° 284.22° Asphalt 0 ft / 0 m 190 ft / 58 m

OAJL

Details ICAO OAJL (JAA)
Name JALALABAD
Region Afghanistan
Timezone Asia/Kabul (UTC+4.5)
Stats Elevation 1,814 ft / 553 m (AMSL)
Location 34.399840° 70.498625°
Runways 1
Magnetic Variation 3.049° E

METAR

OAJL 262255Z 29002KT 9999 CLR 25/09 A2973 RMK A02A SLP019 T02470088

Decode

TAF

Not found

Destination Runways

ID Width Length Bearing (true) Bearing (mag) Surface Threshold Offset Overrun Length
13 148 ft / 45 m 7,263 ft / 2,214 m 131.57° 128.52° Asphalt 0 ft / 0 m 0 ft / 0 m
31 148 ft / 45 m 7,263 ft / 2,214 m 311.58° 308.53° Asphalt 0 ft / 0 m 0 ft / 0 m

Popular Alternatives